Find SBIRS GEO-5

NORAD ID: 48618 Int'l Des: 2021-042 Owner: USSF Country: US operational
HEOCIRCULARGSO

Current View

Loading 3D Globe...

About SBIRS GEO-5

SBIRS GEO-5 (NORAD 48618) is a satellite launched May 18, 2021 by USSF of US. It operates in HEO, CIRCULAR, GSO orbit with a mass of 4500.00 kg.

Upcoming Passes

Passes for default location (London). Set your location on the main map for personalized predictions.

Altitude History

Loading altitude history...

Two-Line Element Set

1 48618U 21042A 26194.89425927 -.00000267 00000-0 00000+0 0 9999
2 48618 5.0705 329.3231 0001392 155.1344 223.0464 1.00270937 19041
Epoch: Jul 13, 2026 • Age: 7 hours

Current Status

Altitude 35781.0 km
Apogee / Perigee N/A
Velocity 3.08 km/s
Sub-Earth Point 4.35°N, 93.89°E
Launch Date May 18, 2021
Age 5.1 years
Type military

Technical Details

Classification Payload
Mass 4500.00 kg
Dry Mass 2500.00 kg
Total Mass 4500.00 kg
Length 6.00 m
Diameter 2.50 m
Span 25.00 m
Shape Box + 2 Pan
Manufacturer LMSS
Bus Type A2100
Phase Status In Orbit
Owner/State USSF/US

Most Searched